This is the latest recevied weather packets stored in our database for station/object PA3BWK. If no packets are shown the sender has not sent any weather packets the latest 10 day(s).
| Time | Temp. | Humidity | Pressure | Rain* | Wind** | Luminosity | Snow |
|---|---|---|---|---|---|---|---|
| 1777459145 | 16.67° C | 35% | 1027.8 hPa | 0 mm | - | 772 W/m² | - |
| 1777459084 | 16.67° C | 36% | 1027.7 hPa | 0 mm | - | 768 W/m² | - |
| 1777459024 | 16.67° C | 36% | 1027.7 hPa | 0 mm | - | 768 W/m² | - |
| 1777458964 | 16.67° C | 38% | 1027.6 hPa | 0 mm | - | 767 W/m² | - |
| 1777458903 | 16.67° C | 36% | 1027.7 hPa | 0 mm | - | 768 W/m² | - |
| 1777458844 | 16.67° C | 35% | 1027.7 hPa | 0 mm | - | 768 W/m² | - |
| 1777458784 | 16.67° C | 35% | 1027.6 hPa | 0 mm | - | 768 W/m² | - |
| 1777458723 | 16.67° C | 36% | 1027.6 hPa | 0 mm | - | 770 W/m² | - |
| 1777458663 | 16.67° C | 35% | 1027.7 hPa | 0 mm | - | 767 W/m² | - |
| 1777458604 | 16.67° C | 36% | 1027.6 hPa | 0 mm | - | 758 W/m² | - |
| 1777458541 | 16.67° C | 36% | 1027.7 hPa | 0 mm | - | 758 W/m² | - |
| 1777458481 | 16.67° C | 36% | 1027.7 hPa | 0 mm | - | 758 W/m² | - |
| 1777458419 | 16.67° C | 36% | 1027.7 hPa | 0 mm | - | 758 W/m² | - |
| 1777458358 | 16.67° C | 36% | 1027.7 hPa | 0 mm | - | 760 W/m² | - |
| 1777458295 | 16.67° C | 37% | 1027.7 hPa | 0 mm | - | 756 W/m² | - |
| 1777458236 | 16.67° C | 39% | 1027.7 hPa | 0 mm | - | 758 W/m² | - |
| 1777458175 | 16.67° C | 39% | 1027.8 hPa | 0 mm | - | 758 W/m² | - |
| 1777458114 | 16.67° C | 39% | 1027.8 hPa | 0 mm | - | 758 W/m² | - |
| 1777458054 | 16.11° C | 39% | 1027.8 hPa | 0 mm | - | 758 W/m² | - |
| 1777457993 | 16.11° C | 37% | 1027.8 hPa | 0 mm | - | 756 W/m² | - |
| 1777457935 | 16.11° C | 38% | 1027.6 hPa | 0 mm | - | 756 W/m² | - |
| 1777457874 | 16.11° C | 37% | 1027.8 hPa | 0 mm | - | 756 W/m² | - |
| 1777457814 | 16.11° C | 38% | 1027.7 hPa | 0 mm | - | 754 W/m² | - |
| 1777457754 | 16.11° C | 38% | 1027.8 hPa | 0 mm | - | 754 W/m² | - |
| 1777457694 | 16.11° C | 40% | 1027.8 hPa | 0 mm | - | 753 W/m² | - |
* Rain latest hour (hover to see other rain measurements)
** Current wind speed in m/s (hover to see current wind gust speed)